{"data":{"norad_id":62197,"epoch":"2026-05-24T20:10:49.821024Z","epoch_age_seconds":82038,"freshness":"FRESH","line1":"1 62197U 24229F   26144.84085441  .00011325  00000+0  42024-3 0  9991","line2":"2 62197  42.9946 201.0006 0001084 283.1691  76.9039 15.27594103 82206","mean_motion":15.27594103,"eccentricity":0.0001084,"inclination_deg":42.9946,"raan_deg":201.0006,"arg_perigee_deg":283.1691,"mean_anomaly_deg":76.9039,"bstar":0.00042024,"rev_number":8220,"period_min":94.265878427524,"perigee_km":482.26311891384,"apogee_km":483.75061490419,"semimajor_km":6861.143866909,"source":"CELESTRAK","updated_at":"2026-05-25T13:38:19.606771Z"}}